RS20S (GEOSCAN-EDELVEIS) (53385 NORAD) Tracking and Keplerian Element Data

This shows tracking and keplerian element data for the satellite.

Feedback or suggestion? Click here.




ElementValue
Catalog53385
NameRS20S (GEOSCAN-EDELVEIS)
Epoch Orbit1588
Epoch Day325.24143177
Epoch Year2022
RAAN226.1576
Inclination97.4274
Eccentricity0.0007015
Argument of Perigee78.4191
Mean Anonmoly78.9652
Mean Motion15.27919423
Decay Rate0.00011886
L11 53385U 22096R 22325.24143177 .00011886 00000+0 43838-3 0 9998
L22 53385 97.4274 226.1576 0007015 78.4191 78.9652 15.27919423 15883



Live tracking and technical data element details for RS20S (GEOSCAN-EDELVEIS) (NORAD 53385). RS20S (GEOSCAN-EDELVEIS) can be tracked NOW for your location showing map with azimuth and elevation plus other details from your city location.







IsCatalogInMostPopularTable: catalog: 53385, numindb: 7
Update: records affected: 1



GetName: 53385 RS20S (GEOSCAN-EDELVEIS)

Hit Count: updated at: Tue, 29 Nov 2022 01:43:11 GMT